Stavropol

URMT, Airport temperature: -3°C, qnh:1024 hPa.

 

Stavropol Shpakovskoye Airport

IATA: STW, ICAO: URMT

Charts: CAI GA, Jeppesen

Scenery:
fs9                           fsx                            x-plane

МЕТАR:  URMT 180330Z 33003MPS 1500 R25/P2000U BR OVC001 M03/M03 Q1024 R25/190060 NOSIG RMK QBB050 OBST OBSC QFE729

Stavropol Shpakovskoye Airport (sometimes appearing as Mikhaylovskoye) is an airport in Stavropol Krai, Russia located 13 km northeast of Stavropol.

Stavropol Shpakovskoye Airport has tolerance for accepting the following types of aircraft: Airbus A319, Airbus A320, Airbus A321, BAe 146, Boeing 737, Boeing 757, Bombardier CRJ 100/200, SAAB-2000, Sukhoi Superjet 100, An-12, An- 24, An-148, Il-14, Il-18, Il-76, Tu-134, Tu-154, Tu-204, Tu-214, Yak-40, Yak-42 and lighter, as well as helicopters of all types .